TimeCET,TemperatureF,Dew PointF,Humidity,Sea Level PressureIn,VisibilityMPH,Wind Direction,Wind SpeedMPH,Gust SpeedMPH,PrecipitationIn,Events,Conditions,WindDirDegrees,DateUTC
12:00 AM,44.6,44.6,100,29.42,5.0,Variable,2.3,-,N/A,,Overcast,0,2013-11-04 23:00:00
1:00 AM,44.6,42.8,93,29.39,3.7,SSW,3.5,-,N/A,,Overcast,210,2013-11-05 00:00:00
1:25 AM,44.6,42.8,93,29.42,1.6,South,3.5,-,N/A,,Overcast,190,2013-11-05 00:25:00
2:00 AM,42.8,42.8,100,29.42,1.6,SSW,4.6,-,N/A,,Overcast,210,2013-11-05 01:00:00
3:00 AM,42.8,42.8,100,29.42,1.6,South,4.6,-,N/A,,Light Drizzle,190,2013-11-05 02:00:00
4:00 AM,42.8,42.8,100,29.42,1.6,SSW,5.8,-,N/A,Rain,Light Rain,210,2013-11-05 03:00:00
4:30 AM,42.8,42.8,100,29.42,1.6,SSW,8.1,-,N/A,Rain,Light Rain,210,2013-11-05 03:30:00
5:00 AM,42.8,42.8,100,29.44,1.6,SSW,5.8,-,N/A,Rain,Light Rain,210,2013-11-05 04:00:00
6:00 AM,42.8,42.8,100,29.42,1.6,Variable,1.2,-,N/A,Rain,Light Rain,0,2013-11-05 05:00:00
7:00 AM,42.8,42.8,100,29.44,0.7,SSW,5.8,-,N/A,Rain,Light Rain,210,2013-11-05 06:00:00
7:34 AM,44.6,42.8,93,29.47,1.9,West,5.8,-,N/A,Rain,Light Rain,260,2013-11-05 06:34:00
8:00 AM,44.6,42.8,93,29.50,2.5,NW,6.9,-,N/A,Rain,Light Rain,310,2013-11-05 07:00:00
8:19 AM,44.6,42.8,93,29.50,6.2,NNW,10.4,-,N/A,Rain,Light Rain,330,2013-11-05 07:19:00
9:00 AM,42.8,41.0,93,29.50,6.2,NNW,8.1,-,N/A,,Overcast,340,2013-11-05 08:00:00
10:00 AM,44.6,41.0,87,29.53,6.2,NW,8.1,-,N/A,,Overcast,320,2013-11-05 09:00:00
11:00 AM,44.6,37.4,76,29.53,6.2,NNW,9.2,-,N/A,,Overcast,330,2013-11-05 10:00:00
12:00 PM,44.6,35.6,71,29.53,6.2,NW,9.2,-,N/A,,Mostly Cloudy,320,2013-11-05 11:00:00
1:00 PM,44.6,32.0,61,29.53,6.2,WNW,12.7,-,N/A,,Mostly Cloudy,290,2013-11-05 12:00:00
2:00 PM,44.6,33.8,66,29.50,6.2,WNW,9.2,-,N/A,,Mostly Cloudy,300,2013-11-05 13:00:00
3:00 PM,42.8,32.0,66,29.50,6.2,West,10.4,-,N/A,,Mostly Cloudy,280,2013-11-05 14:00:00
4:00 PM,41.0,33.8,76,29.50,6.2,West,10.4,-,N/A,,Mostly Cloudy,280,2013-11-05 15:00:00
5:00 PM,41.0,33.8,76,29.50,6.2,West,10.4,-,N/A,,Mostly Cloudy,280,2013-11-05 16:00:00
6:00 PM,39.2,33.8,81,29.50,6.2,West,6.9,-,N/A,,Mostly Cloudy,280,2013-11-05 17:00:00
7:00 PM,37.4,33.8,87,29.50,-9999.0,West,6.9,-,N/A,,Clear,280,2013-11-05 18:00:00
8:00 PM,35.6,32.0,87,29.50,-9999.0,West,4.6,-,N/A,,Clear,280,2013-11-05 19:00:00
9:00 PM,37.4,32.0,81,29.50,-9999.0,West,5.8,-,N/A,,Clear,280,2013-11-05 20:00:00
10:00 PM,33.8,32.0,93,29.47,-9999.0,WSW,3.5,-,N/A,,Clear,240,2013-11-05 21:00:00
11:00 PM,33.8,32.0,93,29.47,-9999.0,Calm,Calm,-,N/A,,Clear,0,2013-11-05 22:00:00